Weather History for Independence, KS

Change the Weather History Date:

Tuesday, February 12, 2013

  Actual Average (KCFV) Record (KCFV)
Temperature  
Mean Temperature 34 °F -  
Max Temperature 39 °F 48 °F 60 °F (2009)
Min Temperature 30 °F 28 °F 10 °F (2014)
Degree Days  
Heating Degree Days 30    
Moisture  
Dew Point 29 °F    
Average Humidity 86    
Maximum Humidity 100    
Minimum Humidity 65    
Precipitation  
Precipitation 0.00 in - - ()
Sea Level Pressure  
Sea Level Pressure 30.07 in    
Wind  
Wind Speed 6 mph (NNE)    
Max Wind Speed 10 mph    
Max Gust Speed -    
Visibility 7 miles    
Events Rain , Snow    
Averages and records for this station are not official NWS values.
T = Trace of Precipitation, MM = Missing Value Source: NWS Daily Summary

Daily Weather History Graph

Daily Weather History Graph

Search for Another Location

Airport:

Trip Planner

Search our weather history database for the weather conditions in past years. The results will help you decide how hot, cold, wet, or windy it might be!

Date:

Astronomy

Feb. 12, 2013 Rise Set
Actual Time 7:14 AM CST 6:00 PM CST
Civil Twilight 6:48 AM CST 6:26 PM CST
Nautical Twilight 6:17 AM CST 6:57 PM CST
Astronomical Twilight 5:47 AM CST 7:27 PM CST
Moon 8:17 AM CST (2/12) 8:56 PM CST (2/12)
Length of Visible Light 11h 38m
Length of Day
10h 45m
Waxing Crescent, 7% of the Moon is Illuminated
Feb 12
Waxing Crescent
Feb 17
First Quarter
Feb 25
Full
Mar 4
Last Quarter
Mar 11
New

Hourly Weather History & Observations

Time (CST) Temp. Windchill Dew Point Humidity Pressure Visibility Wind Dir Wind Speed Gust Speed Precip Events Conditions
12:15 AM 32.0 °F 26.4 °F 30.2 °F 93% 30.16 in 10.0 mi North 5.8 mph - N/A   Scattered Clouds
12:35 AM 33.8 °F 28.6 °F 28.4 °F 81% 30.16 in 10.0 mi North 5.8 mph - N/A   Scattered Clouds
12:55 AM 32.0 °F 26.4 °F 28.4 °F 87% 30.15 in 10.0 mi North 5.8 mph - N/A   Clear
1:15 AM 32.0 °F 27.5 °F 30.2 °F 93% 30.15 in 10.0 mi North 4.6 mph - N/A   Clear
1:35 AM 32.0 °F 25.6 °F 28.4 °F 87% 30.13 in 10.0 mi NNE 6.9 mph - N/A   Clear
1:55 AM 30.2 °F 25.4 °F 26.6 °F 86% 30.14 in 10.0 mi NNE 4.6 mph - N/A   Clear
2:15 AM 32.0 °F 26.4 °F 28.4 °F 87% 30.13 in 10.0 mi North 5.8 mph - N/A   Clear
2:35 AM 32.0 °F 25.6 °F 26.6 °F 80% 30.13 in 10.0 mi NNE 6.9 mph - N/A   Clear
2:55 AM 32.0 °F 25.6 °F 26.6 °F 80% 30.13 in 10.0 mi NNE 6.9 mph - N/A   Clear
3:15 AM 32.0 °F 25.6 °F 26.6 °F 80% 30.12 in 10.0 mi NNE 6.9 mph - N/A   Clear
3:35 AM 32.0 °F 26.4 °F 26.6 °F 80% 30.11 in 10.0 mi NNE 5.8 mph - N/A   Clear
3:55 AM 32.0 °F 25.6 °F 26.6 °F 80% 30.12 in 10.0 mi North 6.9 mph - N/A   Clear
4:15 AM 32.0 °F 25.6 °F 26.6 °F 80% 30.12 in 10.0 mi North 6.9 mph - N/A   Clear
4:35 AM 32.0 °F 24.8 °F 26.6 °F 80% 30.12 in 10.0 mi North 8.1 mph - N/A   Clear
4:55 AM 32.0 °F 24.8 °F 26.6 °F 80% 30.12 in 10.0 mi North 8.1 mph - N/A   Clear
5:15 AM 32.0 °F 24.2 °F 26.6 °F 80% 30.11 in 10.0 mi NNE 9.2 mph - N/A   Clear
5:35 AM 32.0 °F 25.6 °F 26.6 °F 80% 30.11 in 10.0 mi North 6.9 mph - N/A   Scattered Clouds
5:55 AM 32.0 °F 28.7 °F 26.6 °F 80% 30.12 in 10.0 mi North 3.5 mph - N/A   Scattered Clouds
6:15 AM 32.0 °F 28.7 °F 26.6 °F 80% 30.13 in 10.0 mi NNE 3.5 mph - N/A   Mostly Cloudy
6:35 AM 32.0 °F 25.6 °F 26.6 °F 80% 30.13 in 10.0 mi NNE 6.9 mph - N/A   Overcast
6:55 AM 32.0 °F 25.6 °F 26.6 °F 80% 30.12 in 10.0 mi North 6.9 mph - N/A   Overcast
7:15 AM 32.0 °F 27.5 °F 26.6 °F 80% 30.13 in 10.0 mi NNE 4.6 mph - N/A   Overcast
7:35 AM 32.0 °F 26.4 °F 26.6 °F 80% 30.11 in 10.0 mi NE 5.8 mph - N/A   Overcast
7:55 AM 32.0 °F 24.8 °F 26.6 °F 80% 30.09 in 10.0 mi NNE 8.1 mph - N/A   Overcast
8:15 AM 32.0 °F - 26.6 °F 80% 30.11 in 10.0 mi Calm Calm - N/A   Overcast
8:35 AM 33.8 °F 27.0 °F 26.6 °F 75% 30.10 in 10.0 mi NNE 8.1 mph - N/A   Overcast
8:55 AM 33.8 °F 29.6 °F 26.6 °F 75% 30.12 in 10.0 mi East 4.6 mph - N/A   Overcast
9:15 AM 33.8 °F 28.6 °F 28.4 °F 81% 30.12 in 10.0 mi NE 5.8 mph - N/A   Overcast
9:35 AM 33.8 °F 28.6 °F 28.4 °F 81% 30.11 in 10.0 mi NNE 5.8 mph - N/A   Overcast
9:55 AM 35.6 °F 29.9 °F 28.4 °F 75% 30.11 in 10.0 mi NE 6.9 mph - N/A   Overcast
10:15 AM 35.6 °F 31.7 °F 28.4 °F 75% 30.11 in 10.0 mi NE 4.6 mph - N/A   Overcast
10:35 AM 35.6 °F 29.2 °F 28.4 °F 75% 30.10 in 10.0 mi NE 8.1 mph - N/A   Overcast
10:55 AM 37.4 °F 30.8 °F 28.4 °F 70% 30.09 in 10.0 mi North 9.2 mph - N/A   Overcast
11:15 AM 37.4 °F 33.8 °F 28.4 °F 70% 30.11 in 10.0 mi ENE 4.6 mph - N/A   Overcast
11:35 AM 37.4 °F 33.8 °F 28.4 °F 70% 30.11 in 10.0 mi NE 4.6 mph - N/A   Overcast
11:55 AM 37.4 °F 32.1 °F 28.4 °F 70% 30.10 in 10.0 mi NNE 6.9 mph - N/A   Overcast
12:15 PM 37.4 °F 31.4 °F 28.4 °F 70% 30.08 in 10.0 mi North 8.1 mph - N/A   Overcast
12:35 PM 37.4 °F 32.1 °F 30.2 °F 75% 30.08 in 10.0 mi NNE 6.9 mph - N/A   Overcast
12:55 PM 39.2 °F 35.9 °F 30.2 °F 70% 30.07 in 10.0 mi NNE 4.6 mph - N/A   Overcast
1:15 PM 39.2 °F 35.0 °F 28.4 °F 65% 30.05 in 10.0 mi NNE 5.8 mph - N/A   Overcast
1:35 PM 39.2 °F 34.2 °F 28.4 °F 65% 30.03 in 10.0 mi NNE 6.9 mph - N/A   Overcast
1:55 PM 39.2 °F 35.0 °F 30.2 °F 70% 30.02 in 10.0 mi North 5.8 mph - N/A Rain Light Rain
2:15 PM 37.4 °F 31.4 °F 30.2 °F 75% 30.01 in 10.0 mi North 8.1 mph - N/A Rain Light Rain
2:35 PM 37.4 °F 30.8 °F 32.0 °F 81% 30.00 in 10.0 mi North 9.2 mph - N/A Rain Light Rain
2:55 PM 37.4 °F 30.3 °F 32.0 °F 81% 29.99 in 10.0 mi North 10.4 mph - N/A Rain Light Rain
3:15 PM 35.6 °F 29.9 °F 32.0 °F 87% 30.00 in 5.0 mi North 6.9 mph - N/A Rain Rain
3:35 PM 35.6 °F 32.8 °F 32.0 °F 87% 30.00 in 7.0 mi NNE 3.5 mph - N/A Rain Rain
3:55 PM 33.8 °F 27.0 °F 32.0 °F 93% 30.01 in 4.0 mi NNW 8.1 mph - N/A Snow Light Snow
4:15 PM 33.8 °F 28.6 °F 32.0 °F 93% 30.02 in 2.5 mi NNW 5.8 mph - N/A Rain Heavy Rain
4:35 PM 32.0 °F 26.4 °F 32.0 °F 100% 30.01 in 2.0 mi North 5.8 mph - N/A Snow Light Snow
4:55 PM 32.0 °F 25.6 °F 32.0 °F 100% 30.00 in 2.0 mi North 6.9 mph - N/A Snow Light Snow
5:15 PM 32.0 °F 24.8 °F 32.0 °F 100% 30.00 in 2.5 mi North 8.1 mph - N/A Snow Light Snow
5:35 PM 32.0 °F 25.6 °F 32.0 °F 100% 30.01 in 1.5 mi North 6.9 mph - N/A Snow Light Snow
5:55 PM 32.0 °F 25.6 °F 32.0 °F 100% 30.01 in 1.8 mi North 6.9 mph - N/A Snow Light Snow
6:15 PM 32.0 °F 24.8 °F 32.0 °F 100% 30.02 in 1.2 mi North 8.1 mph - N/A Snow Light Snow
6:35 PM 32.0 °F 26.4 °F 32.0 °F 100% 30.02 in 1.2 mi North 5.8 mph - N/A Snow Light Snow
6:55 PM 32.0 °F 26.4 °F 32.0 °F 100% 30.03 in 2.5 mi North 5.8 mph - N/A Snow Light Snow
7:15 PM 32.0 °F 27.5 °F 32.0 °F 100% 30.03 in 2.5 mi North 4.6 mph - N/A Snow Light Snow
7:35 PM 32.0 °F 28.7 °F 32.0 °F 100% 30.03 in 3.0 mi North 3.5 mph - N/A   Overcast
8:15 PM 32.0 °F 28.7 °F 32.0 °F 100% 30.03 in 3.0 mi North 3.5 mph - N/A   Overcast
8:35 PM 32.0 °F - 32.0 °F 100% 30.02 in 3.0 mi Calm Calm - N/A   Unknown
8:55 PM 32.0 °F - 32.0 °F 100% 30.02 in 3.0 mi Calm Calm - N/A   Unknown
9:15 PM 32.0 °F - 32.0 °F 100% 30.03 in 3.0 mi Calm Calm - N/A   Overcast
9:35 PM 32.0 °F - 32.0 °F 100% 30.03 in 3.0 mi Calm Calm - N/A   Overcast
9:55 PM 32.0 °F - 32.0 °F 100% 30.03 in 3.0 mi Calm Calm - N/A   Overcast
10:15 PM 32.0 °F - 32.0 °F 100% 30.03 in 3.0 mi Calm Calm - N/A   Overcast
10:35 PM 32.0 °F - 32.0 °F 100% 30.03 in 2.5 mi Calm Calm - N/A   Overcast
10:55 PM 32.0 °F - 32.0 °F 100% 30.02 in 2.0 mi Calm Calm - N/A   Overcast
11:15 PM 32.0 °F - 32.0 °F 100% 30.02 in - Calm Calm - N/A   Overcast
11:35 PM 32.0 °F 28.7 °F 32.0 °F 100% 30.02 in 2.0 mi WNW 3.5 mph - N/A   Overcast
11:55 PM 32.0 °F - 32.0 °F 100% 30.01 in 3.0 mi Calm Calm - N/A   Overcast